Pagina principale
METAR-TAF:

METAR-TAF

Aeroporti :

Aeroporto di Ajaccio Napoleone Bonaparte

Ajaccio, Francia

latitudine: 41-55N, longitudine: 008-48E, altezza: 6 m

Osservazione

Il bollettino è stato emesso 33 minuti fa, alle 15:00 UTC
Vento 8 kt da sud-ovest
Temperature 23°C
Umidità 61%
Pressione 1015 hPa
Visibilità 10 km o più

METAR: LFKJ 311500Z AUTO 23008KT 9999 NSC 23/15 Q1015 NOSIG

Ora: 17:33 (15:33 UTC)

Previsione

Il bollettino è stato emesso 1 ora e 33 minuti fa, alle 14:00 UTC
Previsione valida dal 31 alle 15 UTC al 01 alle 15 UTC
Vento 10 kt da sud-ovest
Visibilità 10 km o più
Evoluzione graduale
dal 31 alle 18 UTC al 31 alle 21 UTC
Vento 5 kt da nord-est
Evoluzione graduale
dal 01 alle 08 UTC al 01 alle 09 UTC
Vento 8 kt da sud-ovest

TAF: LFKJ 311400Z 3115/0115 22010KT 9999 NSC BECMG 3118/3121 04005KT BECMG 0108/0109 23008KT

Osservazioni e previsioni meteorologiche di più di 4000 aeroporti (messaggi METAR e TAF).

Le stazioni disponibili sono rappresentate dai dischi gialli e rossi sulla carta.

Puntare il mouse per vedere il nome della stazione.

Clicca sopra per visualizzare le osservazioni e previsioni meteorologiche.

Per cambiare la mappa : fare clic sui pulsanti verdi con una croce nera per ingrandire, il pulsante verde con un trattino per diminuire, o sulla freccia verde per le mappe adiacenti.


METAR-TAF: